Current weather by "City, St" or "zip code"  
 
Advertise Here

Current Conditions: Indianapolis, Eagle Creek Airpark, IN

Partly Cloudy


72.0 F

Last Updated on Aug 4 2020, 6:53 pm EDT
Humidity: 59%
Wind Speed: NW 11.5 mph
Barometer 30.02 in
Dewpoint: 57.0 F
Visibility: 10.00 mi
Precip: --
Heat Index: NA
Wind Chill: NA
Current conditions at:

Indianapolis, Eagle Creek Airpark, IN (KEYE)

Lat: 39.825 Lon: 86.29583

Local Radar Image active severe weather and emergency alerts image image weather storm and storm spotter reports image weather observation monitoring service image
Local
Radar
Active
Alerts
Storm Reports Obs
Monitoring

Sign-up For Email & Text Message Weather Alert Notification Services


Advertise Here

Observation History for Indianapolis, Eagle Creek Airpark, IN


Time Wind
(mph)
Vis
(mi)
Weather Precip (in) Temperature (F) Relative
Humidity
Wind
Chill
(F)
Heat
Index
(F)
Pressure
Air Dwpt altimeter
(in)
sea level
(mb)
Rmks
6:53 pm EDT NW 11.5 10.00 Partly Cloudy -- 72.0 57.0 59% NA NA 30.02 1016.1
5:53 pm EDT NW 13.8 10.00 Mostly Cloudy -- 74.0 55.9 54% NA NA 30.02 1016.2
4:53 pm EDT NW 8.1 10.00 Mostly Cloudy -- 72.0 55.9 57% NA NA 30.02 1016.1
3:53 pm EDT NW 10.4 10.00 Mostly Cloudy -- 74.0 54.0 50% NA NA 30.02 1016.0
2:53 pm EDT NW 6.9 10.00 Mostly Cloudy -- 73.0 55.0 53% NA NA 30.02 1015.9
1:53 pm EDT N 8.1 10.00 Mostly Cloudy -- 74.0 57.9 57% NA NA 30.02 1015.9
12:53 pm EDT N 9.2 10.00 Mostly Cloudy -- 72.0 59.0 64% NA NA 30.01 1015.8
11:53 am EDT NW 9.2 10.00 Partly Cloudy -- 71.0 59.0 66% NA NA 30.01 1015.9
10:53 am EDT N 9.2 10.00 Partly Cloudy -- 69.0 59.0 70% NA NA 30.01 1015.6
9:53 am EDT N 12.7 10.00 Mostly Cloudy -- 69.0 61.0 76% NA NA 30.00 1015.4
8:53 am EDT N 9.2 10.00 Overcast -- 65.0 61.0 87% NA NA 30.00 1015.3
7:53 am EDT N 9.2 10.00 Overcast -- 64.0 61.0 90% NA NA 29.99 1015.0
6:53 am EDT NW 9.2 10.00 Overcast -- 64.0 61.0 90% NA NA 29.98 1014.9
5:53 am EDT N 9.2 10.00 Overcast -- 64.0 61.0 90% NA NA 29.96 1014.3
4:53 am EDT N 6.9 10.00 Overcast -- 64.0 61.0 90% NA NA 29.95 1013.8
3:53 am EDT NW 9.2 10.00 Overcast -- 64.0 61.0 90% NA NA 29.95 1013.7
2:53 am EDT N 6.9 10.00 Overcast -- 65.0 60.1 84% NA NA 29.97 1014.2
1:53 am EDT 10.00 Overcast -- 65.0 61.0 87% NA NA 29.98 1014.4
12:53 am EDT 10.00 Overcast -- 66.0 61.0 84% NA NA 29.98 1014.5
11:53 pm EDT N 9.2 10.00 A Few Clouds -- 67.0 62.1 84% NA NA 29.97 1014.4
10:53 pm EDT N 11.5 10.00 Overcast -- 70.0 64.9 84% NA NA 29.98 1014.5
9:53 pm EDT W 3.5 10.00 Mostly Cloudy -- 70.0 66.9 90% NA NA 29.97 1014.3
8:53 pm EDT N 0.0 10.00 A Few Clouds -- 69.0 66.9 93% NA NA 29.96 1014.2
7:53 pm EDT W 3.5 10.00 Mostly Cloudy -- 70.0 66.0 87% NA NA 29.96 1014.1

Regional Weather Observation


Indianapolis, Eagle Creek Airpark, IN (KEYE)

Partly Cloudy
72.0 F

Indianapolis International Airport, IN (KIND)

Mostly Cloudy
71.0 F

Lafayette, Purdue University Airport, IN (KLAF)

Partly Cloudy
73.0 F

Kokomo, Kokomo Municipal Airport, IN (KOKK)

Mostly Cloudy
71.0 F

Grissom Air Force Base / Peru, IN (KGUS)

Overcast
71.0 F

Logansport/Cass County Airport, IN (KGGP)

Partly Cloudy
70.0 F